FLOCK 2K-11 (42894 NORAD) Tracking and Keplerian Element Data

This shows tracking and keplerian element data for the satellite.

Feedback or suggestion? Click here.




ElementValue
Catalog42894
NameFLOCK 2K-11
Epoch Orbit3291
Epoch Day46.19883938
Epoch Year2018
RAAN309.0338
Inclination96.9929
Eccentricity0.0012732
Argument of Perigee169.3506
Mean Anonmoly190.8011
Mean Motion15.3560102
Decay Rate9.088E-05
L11 42894U 17042BX 18046.19883938 .00009088 00000-0 26405-3 0 9994
L22 42894 96.9929 309.0338 0012732 169.3506 190.8011 15.35601020 32912

Live tracking and technical data element details for FLOCK 2K-11 (NORAD 42894). FLOCK 2K-11 can be tracked NOW for your location showing map with azimuth and elevation plus other details from your city location.

Track the satellite on the map from your city or location and see movement details for azimuth, elevation, latitude, longitude, range, height, and movement on the map or in text.







IsCatalogInMostPopularTable: catalog: 42894, numindb: 91
Update: records affected: 1



GetName: 42894 FLOCK 2K-11

Hit Count: updated at: Fri, 20 Jul 2018 07:06:24 GMT